sat.trackr.live / text

‹ back to catalog

STARLINK-3336

NORAD 50818 · 2022-001R

PAYLOAD ACTIVE UNKNOWN

§ Identity

Operator
Country
US
Launch date
2022-01-06
Launch site
AFETR
Launch vehicle
Mass (kg)
RCS (m²)

Purposes: comms

External: N2YO · Heavens-Above · Gunter

§ Orbital elements

Epoch: 2026-09-19T22:13:49.589760Z

Period
93.85 min
Inclination
53.1628°
Eccentricity
0.0002689
Mean motion
15.34396634 rev/d
Perigee alt
460.9 km
Apogee alt
464.6 km
Semi-major
6,840.9 km
B*
8.2905e-5
RAAN
4.7475°
Arg perigee
25.7075°
Mean anomaly
334.4061°
Rev number
25,989

§ Raw data

STARLINK-33361 50818U 22001R   26262.92626840  .00002425  00000+0  82905-4 0  99922 50818  53.1628   4.7475 0002689  25.7075 334.4061 15.34396634259895

JSON: /api/v1/satellites/50818 · /tle

For live sub-satellite position, see the globe view (requires WebGL).

§ Visibility from observer

Set your observer location to see the next 7 days of passes ≥ 10°. The values pass through the URL so the page stays shareable.

No JS? Fill the form by hand. The geolocation button needs JavaScript.